Terminal Aerodrome Forecast
Issued by NWS

Home | Current Version | Previous Version | Text Only | Print | Product List | Glossary On
Versions: 1 2 3 4 5 6 7 8 9 10 11 12 13 14 15 16 17 18 19 20 21 22 23 24 25 26 27
000
FTUS41 KBGM 181500 AAB
TAFITH
TAF AMD
KITH 181511Z 1815/1912 31012KT P6SM OVC015
     FM181800 31012G20KT P6SM OVC025
      TEMPO 1821/1901 2SM -SN OVC015
     FM190100 30008KT P6SM -SN OVC012=

USA.gov is the U.S. government's official web portal to all federal, state and local government web resources and services.